Wind_Speed
27 29 29 29 29 27 25 25 25 27 29 29 29 29 29 29 29 29 29 28 29 29 28 26 25 25 24 21 20 20 16 13 14 15 17 20 19 22 14 6 12 22 18 15 12
29 30 31 31 30 30 28 27 26 27 27 29 29 27 27 27 28 29 29 29 30 29 28 27 25 25 24 23 22 22 18 16 17 17 19 19 22 27 28 10 10 23 19 19 14
29 31 32 32 32 32 31 29 27 26 26 27 29 30 29 29 27 27 29 31 31 30 27 27 27 26 26 26 25 25 25 20 18 20 22 20 21 27 33 23 13 25 25 25 24
28 31 33 33 32 33 32 30 28 28 27 26 25 25 25 26 26 25 30 30 30 30 30 29 28 28 29 28 27 29 32 25 23 21 23 25 25 25 33 31 25 24 30 30 24
27 28 32 33 32 33 34 33 32 31 29 26 27 27 28 29 28 24 30 31 29 28 28 28 29 29 31 31 32 34 35 34 30 27 25 30 31 27 34 35 30 27 28 30 30
29 28 28 31 32 32 30 30 31 30 28 27 27 28 28 31 29 25 28 29 28 29 31 31 32 32 36 37 37 40 36 39 36 33 30 31 36 31 36 40 39 34 31 31 30
31 32 29 28 28 29 29 30 29 26 26 25 26 27 30 33 32 30 27 29 32 32 31 33 34 35 36 41 42 42 38 41 41 39 36 36 40 39 39 40 44 43 39 36 32
31 30 29 30 29 29 31 30 32 30 29 29 30 32 33 37 35 35 33 33 35 37 37 38 37 38 39 41 41 43 40 41 45 43 39 36 39 44 42 42 47 45 43 43 39
30 31 30 30 29 30 30 31 32 35 33 34 35 35 36 40 40 39 37 35 38 35 33 36 40 42 46 44 43 46 44 46 46 51 44 37 37 48 48 46 48 50 49 46 39
36 35 34 34 32 33 34 33 36 36 37 37 36 36 35 39 40 43 44 45 44 45 43 43 40 39 46 47 47 48 48 48 48 53 51 43 42 40 52 53 50 51 50 46 48
42 40 36 38 36 38 38 38 38 38 40 42 43 43 40 44 44 47 46 48 48 47 48 48 49 47 49 49 47 53 53 52 55 55 53 54 49 49 49 56 56 54 49 46 53
45 45 45 44 44 46 46 46 47 44 44 49 48 46 49 52 51 53 55 53 51 52 52 51 54 55 54 60 56 55 51 54 55 60 58 59 55 58 58 60 55 58 58 58 57
50 50 49 50 51 52 50 54 53 52 49 51 51 50 55 54 52 54 60 58 55 56 55 50 45 51 55 54 56 55 57 60 61 62 63 66 65 65 68 69 63 61 66 65 66
51 58 57 57 57 56 57 56 58 55 53 52 53 54 56 59 55 51 49 54 54 55 57 49 59 62 57 59 62 59 69 67 62 62 65 67 66 61 69 69 67 69 74 71 71
56 54 59 64 62 62 61 61 59 56 54 53 51 55 58 52 58 58 61 59 56 61 61 62 62 73 72 74 75 75 83 83 85 81 64 63 74 70 76 73 66 72 78 77 80
63 63 61 60 59 57 58 62 61 60 56 49 55 54 58 61 62 68 73 69 68 68 69 70 72 77 77 80 86 89 91 93 98 98 87 81 80 58 68 81 81 82 81 81 82
66 67 66 66 66 64 67 62 66 61 62 60 58 62 64 67 73 75 74 76 78 76 78 80 80 85 88 90 91 95 99 104 104 101 96 89 90 75 81 79 79 81 88 93 92
72 74 72 70 72 73 73 70 67 66 67 69 68 70 71 74 75 79 82 82 85 89 91 92 91 94 96 93 99 105 111 110 106 94 90 90 92 90 91 87 89 90 87 88 88
78 77 77 76 70 70 74 73 78 78 77 76 78 79 84 86 86 84 84 83 88 86 94 96 100 103 107 107 111 116 117 102 103 99 100 94 91 98 99 100 98 95 95 99 97
86 79 72 75 78 76 80 80 83 89 84 87 86 83 84 92 95 93 99 95 94 97 100 106 111 110 111 115 119 118 114 101 101 103 112 102 93 88 97 101 105 106 103 105 108
93 82 83 86 79 86 89 90 93 94 93 93 92 93 97 104 105 101 103 105 106 104 107 114 118 116 120 120 122 119 104 101 111 108 110 105 99 97 98 100 104 108 108 114 109
89 84 83 95 98 97 98 102 96 100 102 100 97 99 105 113 116 103 101 106 111 108 115 120 129 121 118 114 116 112 110 107 115 114 112 112 110 106 117 116 116 118 118 116 117
92 92 100 107 106 106 108 107 106 102 108 109 107 107 114 114 123 111 114 123 118 119 122 127 128 126 115 113 115 116 116 115 114 116 114 119 113 112 122 124 121 123 126 131 130
102 106 114 113 114 114 112 111 108 107 117 119 118 118 121 124 122 120 125 125 123 128 128 129 126 120 121 117 119 122 120 117 117 118 120 117 119 111 116 123 122 118 119 120 121
110 122 124 121 120 120 121 122 118 119 122 125 124 128 127 129 120 131 130 128 133 133 130 130 127 127 128 130 127 122 115 112 118 122 125 117 120 114 118 117 118 118 117 117 114
127 127 124 126 123 126 129 124 127 128 129 128 131 135 135 134 136 133 132 138 135 131 130 129 133 135 133 132 127 121 111 117 118 117 118 119 117 117 115 116 116 115 116 117 115
129 133 135 130 128 131 128 129 131 135 141 134 136 135 133 132 138 136 134 133 136 137 136 140 140 138 128 133 128 115 117 119 117 116 116 117 115 114 114 113 112 112 115 114 112
Wind_Direction
257 259 261 259 263 265 269 269 271 269 269 270 273 277 278 282 285 287 289 286 284 284 286 282 281 278 278 276 273 276 281 287 290 293 294 299 298 299 291 282 310 295 293 299 299
256 257 258 258 259 263 266 269 270 273 272 270 269 272 273 275 279 282 285 285 284 285 283 281 275 269 269 267 271 274 282 283 293 294 288 287 293 293 290 298 276 282 292 288 288
258 257 255 257 258 260 265 269 271 273 273 272 271 273 276 277 278 281 287 281 282 284 283 279 275 270 266 267 272 275 275 277 290 285 282 280 279 284 292 309 278 281 293 287 293
259 256 255 255 258 259 261 263 267 271 276 273 274 275 277 280 283 291 282 281 280 280 279 278 275 272 269 270 269 273 275 274 274 281 284 274 271 282 288 297 297 280 281 285 288
259 262 259 260 262 265 266 265 268 270 273 272 271 273 276 279 282 290 288 285 284 283 279 276 274 272 270 270 272 270 273 273 271 268 273 277 273 276 287 284 283 283 281 289 299
256 259 265 260 262 266 268 270 270 273 276 275 277 277 282 281 283 287 289 288 288 291 287 283 278 276 274 272 272 273 271 276 274 272 265 269 275 274 279 283 287 280 279 282 287
260 262 258 260 259 261 263 268 267 267 267 270 275 278 279 282 281 281 279 279 280 283 285 283 285 283 280 278 274 274 272 274 276 273 271 271 275 274 272 277 281 282 284 279 279
260 259 256 258 259 259 262 266 263 265 266 270 268 271 274 277 275 278 278 278 277 276 275 278 277 277 281 277 274 272 272 271 274 272 272 272 273 269 269 273 276 276 280 284 286
260 255 257 261 266 262 263 267 267 266 268 270 271 270 273 274 275 274 274 276 284 281 278 279 276 274 271 270 272 271 270 269 267 277 272 271 263 277 275 265 266 274 277 279 279
258 260 266 261 262 264 266 265 266 269 269 269 271 267 267 271 275 274 275 278 282 282 279 283 280 278 274 272 269 267 268 264 266 268 273 265 262 264 270 275 269 270 273 279 274
256 259 263 263 265 267 268 270 270 272 275 277 276 276 268 274 279 280 278 279 282 279 279 281 280 278 278 279 274 268 268 266 263 258 259 263 262 261 254 259 269 274 274 271 274
251 255 258 257 264 269 269 272 271 266 268 273 275 276 279 278 276 280 279 280 281 281 282 283 286 283 284 285 280 270 271 268 266 261 259 259 262 264 259 255 261 264 266 264 266
255 257 258 258 263 267 269 269 272 267 264 270 275 276 276 277 278 278 279 276 277 281 281 280 293 285 286 291 289 285 281 275 267 266 265 263 263 265 262 261 261 261 259 261 260
269 265 258 259 262 266 268 268 271 269 268 265 267 273 277 277 275 277 277 283 277 277 288 294 293 300 299 282 297 294 295 297 285 287 272 268 261 261 259 259 259 261 262 262 261
269 273 271 266 264 266 268 265 268 272 270 267 273 273 274 287 279 280 286 285 292 295 295 296 297 299 299 297 297 295 297 298 297 295 283 284 274 262 265 264 260 260 258 258 260
271 271 274 273 269 268 271 270 270 271 274 281 283 281 277 278 289 292 298 290 294 298 293 295 296 294 293 295 297 297 295 296 296 296 298 286 276 273 273 270 266 261 261 260 259
274 273 275 274 274 276 275 277 274 277 279 282 286 288 290 291 293 295 296 292 291 297 296 293 293 294 293 292 293 295 294 294 293 294 296 289 286 284 278 277 267 269 263 261 261
271 271 273 275 270 274 279 275 279 280 289 285 283 284 292 291 293 295 295 296 294 294 294 295 296 294 291 292 291 291 291 293 290 287 279 279 282 276 280 277 274 273 268 265 261
273 278 273 273 276 278 285 288 290 285 284 283 285 286 286 289 295 292 293 293 292 294 294 298 297 293 293 292 293 296 295 290 286 278 274 279 273 274 275 272 269 269 268 269 267
273 277 274 277 280 278 288 287 287 283 280 283 284 284 291 287 290 293 292 291 293 293 292 291 292 292 293 293 294 293 293 283 283 279 278 279 271 275 271 267 266 266 265 265 267
274 272 273 279 276 279 285 291 280 283 285 282 283 287 288 292 294 291 292 289 287 289 290 291 293 293 293 292 292 291 290 281 285 286 285 281 277 279 275 269 268 268 266 265 267
270 268 271 277 281 285 286 289 285 280 287 290 286 283 284 287 291 290 287 291 287 286 285 287 292 290 291 292 290 289 288 280 279 281 282 282 277 274 270 272 268 269 270 266 268
272 270 276 283 283 286 284 288 288 285 285 289 286 284 287 288 291 292 290 291 290 289 289 291 291 291 292 291 289 288 289 288 286 286 285 283 280 276 272 274 271 267 265 266 266
271 272 275 281 281 282 282 286 285 282 285 287 287 287 285 287 289 291 293 288 287 290 290 290 290 290 289 292 290 289 287 286 287 286 285 283 283 279 279 279 277 276 276 274 272
267 275 277 277 280 280 284 288 285 285 284 286 289 288 285 287 284 289 290 289 289 289 289 290 291 290 291 290 289 287 287 287 286 286 285 284 282 283 279 279 279 279 280 279 277
268 268 270 273 274 278 282 285 282 284 286 286 284 285 285 283 284 288 286 287 290 290 289 288 289 288 290 290 289 286 288 288 285 284 284 283 282 282 280 280 281 281 281 280 281
272 270 273 275 274 276 278 280 280 280 284 284 284 284 284 283 284 286 287 287 286 287 285 287 288 288 287 288 287 287 290 285 286 285 284 283 282 283 283 284 283 283 283 283 283
Height
10792 10793 10794 10794 10795 10796 10796 10795 10796 10796 10797 10797 10798 10798 10798 10797 10797 10797 10797 10797 10796 10796 10796 10795 10794 10793 10793 10793 10791 10791 10790 10789 10788 10788 10786 10784 10783 10781 10783 10785 10784 10780 10782 10782 10783
10787 10788 10789 10789 10790 10791 10791 10791 10791 10791 10792 10791 10791 10792 10792 10792 10792 10792 10792 10791 10790 10791 10791 10790 10789 10788 10787 10787 10787 10786 10787 10786 10786 10785 10783 10782 10780 10777 10775 10783 10783 10777 10777 10778 10781
10782 10782 10783 10783 10784 10785 10786 10787 10787 10786 10786 10786 10786 10786 10787 10787 10788 10789 10787 10786 10785 10785 10785 10785 10785 10785 10784 10783 10784 10783 10782 10783 10782 10781 10780 10779 10777 10775 10770 10776 10780 10775 10774 10772 10773
10775 10775 10776 10777 10778 10778 10778 10779 10781 10781 10781 10781 10781 10781 10782 10782 10784 10785 10781 10780 10781 10781 10781 10781 10780 10781 10780 10780 10780 10778 10776 10778 10778 10777 10775 10774 10772 10773 10768 10769 10773 10771 10767 10767 10770
10768 10768 10769 10771 10772 10773 10773 10773 10775 10775 10775 10776 10777 10775 10776 10776 10778 10780 10776 10776 10776 10775 10775 10775 10776 10775 10774 10775 10774 10773 10771 10771 10773 10773 10772 10769 10768 10770 10765 10762 10764 10766 10765 10765 10765
10760 10761 10763 10764 10765 10766 10766 10767 10768 10768 10769 10770 10771 10771 10770 10769 10771 10774 10772 10771 10771 10770 10770 10770 10770 10770 10768 10768 10769 10766 10766 10763 10765 10766 10767 10765 10762 10766 10760 10756 10755 10758 10760 10762 10761
10754 10755 10756 10758 10758 10759 10759 10760 10761 10762 10762 10762 10763 10764 10763 10762 10763 10765 10765 10764 10764 10764 10764 10764 10764 10763 10763 10762 10761 10760 10762 10757 10756 10758 10762 10761 10755 10756 10755 10754 10747 10747 10751 10753 10756
10746 10748 10749 10750 10752 10753 10753 10754 10754 10755 10755 10756 10756 10757 10756 10754 10755 10756 10756 10755 10756 10756 10757 10756 10757 10756 10754 10754 10754 10752 10755 10752 10746 10748 10754 10757 10752 10745 10748 10748 10739 10741 10742 10742 10748
10737 10739 10741 10743 10745 10746 10746 10747 10748 10749 10749 10749 10749 10749 10748 10744 10745 10746 10747 10747 10747 10746 10747 10747 10747 10747 10744 10743 10747 10742 10747 10745 10743 10736 10744 10748 10748 10735 10735 10738 10733 10730 10733 10736 10737
10729 10730 10732 10734 10736 10737 10737 10738 10740 10741 10741 10741 10741 10740 10740 10737 10737 10737 10737 10737 10737 10738 10737 10737 10737 10736 10731 10733 10738 10736 10736 10736 10734 10729 10730 10735 10737 10739 10727 10721 10724 10724 10724 10727 10722
10718 10720 10722 10724 10726 10727 10728 10729 10730 10732 10730 10729 10730 10729 10732 10728 10728 10725 10725 10725 10726 10725 10725 10726 10725 10726 10721 10721 10723 10723 10724 10725 10723 10720 10721 10717 10723 10724 10723 10714 10711 10711 10715 10713 10707
10706 10709 10711 10713 10716 10715 10717 10718 10718 10720 10722 10716 10716 10719 10719 10717 10720 10716 10712 10713 10713 10714 10714 10716 10714 10712 10714 10707 10709 10711 10711 10710 10711 10708 10712 10709 10713 10709 10707 10702 10707 10703 10699 10696 10694
10696 10698 10699 10701 10704 10704 10705 10705 10706 10707 10709 10707 10704 10706 10707 10705 10706 10707 10699 10702 10704 10702 10700 10702 10700 10698 10698 10696 10694 10696 10697 10698 10696 10694 10696 10697 10702 10698 10688 10687 10694 10692 10684 10681 10679
10685 10687 10687 10688 10690 10692 10693 10692 10692 10692 10695 10699 10697 10693 10691 10691 10692 10692 10691 10691 10691 10690 10686 10690 10683 10680 10681 10685 10681 10680 10675 10677 10676 10677 10682 10681 10684 10684 10670 10673 10680 10676 10669 10665 10664
10672 10674 10674 10677 10678 10678 10679 10678 10678 10677 10683 10685 10686 10683 10681 10677 10676 10676 10677 10676 10676 10674 10668 10670 10672 10665 10664 10662 10661 10666 10660 10656 10652 10654 10665 10663 10651 10669 10655 10658 10660 10655 10651 10648 10645
10657 10658 10659 10661 10663 10664 10665 10665 10665 10665 10671 10670 10669 10665 10664 10664 10664 10662 10661 10660 10657 10658 10654 10649 10654 10648 10647 10645 10639 10639 10635 10634 10629 10631 10640 10634 10623 10652 10637 10634 10640 10635 10631 10628 10624
10640 10642 10644 10645 10647 10650 10651 10651 10651 10655 10656 10654 10650 10648 10648 10646 10644 10644 10644 10642 10636 10640 10635 10633 10632 10631 10628 10624 10621 10614 10609 10608 10603 10606 10614 10610 10603 10619 10612 10610 10615 10608 10608 10604 10601
10624 10627 10627 10628 10630 10632 10634 10634 10638 10640 10633 10632 10631 10631 10629 10629 10628 10623 10625 10623 10613 10618 10614 10610 10610 10607 10610 10607 10599 10593 10585 10579 10568 10580 10581 10589 10587 10586 10581 10582 10584 10577 10577 10577 10573
10603 10607 10608 10609 10611 10612 10615 10618 10618 10613 10612 10610 10611 10614 10610 10605 10604 10604 10601 10603 10593 10594 10586 10581 10587 10581 10576 10575 10569 10565 10553 10550 10542 10542 10540 10564 10568 10560 10563 10548 10545 10549 10547 10542 10542
10581 10583 10584 10587 10586 10588 10595 10602 10597 10584 10590 10588 10591 10594 10591 10583 10583 10583 10580 10582 10573 10569 10564 10560 10559 10561 10555 10553 10545 10529 10524 10524 10519 10506 10510 10526 10530 10542 10522 10519 10512 10511 10508 10509 10512
10557 10559 10563 10561 10564 10569 10578 10580 10574 10566 10565 10567 10566 10568 10565 10558 10552 10559 10560 10556 10552 10545 10545 10532 10526 10545 10532 10527 10514 10500 10500 10493 10485 10486 10471 10473 10495 10512 10493 10478 10475 10472 10476 10481 10477
10531 10537 10540 10537 10541 10547 10551 10549 10548 10549 10542 10539 10541 10544 10541 10535 10528 10532 10536 10530 10528 10529 10521 10512 10500 10510 10514 10503 10486 10473 10474 10473 10460 10461 10449 10441 10444 10477 10445 10450 10443 10442 10437 10435 10437
10506 10511 10512 10516 10519 10522 10522 10524 10519 10522 10519 10523 10523 10519 10512 10509 10497 10505 10503 10500 10494 10491 10495 10485 10468 10468 10482 10479 10460 10447 10445 10437 10428 10422 10421 10405 10412 10418 10407 10401 10400 10402 10404 10402 10399
10482 10486 10491 10491 10496 10497 10495 10502 10502 10500 10495 10494 10493 10492 10487 10482 10476 10477 10478 10468 10466 10464 10455 10444 10444 10443 10438 10445 10434 10420 10418 10416 10406 10392 10381 10380 10370 10387 10374 10352 10351 10362 10362 10361 10363
10465 10467 10473 10472 10474 10464 10463 10476 10475 10470 10468 10467 10463 10458 10452 10452 10448 10449 10445 10437 10437 10434 10427 10414 10412 10405 10403 10398 10397 10390 10389 10393 10374 10357 10337 10348 10335 10347 10333 10329 10324 10320 10317 10312 10314
10446 10449 10448 10450 10450 10447 10445 10452 10438 10439 10432 10441 10443 10430 10425 10423 10419 10422 10416 10407 10401 10401 10396 10385 10382 10372 10373 10360 10354 10353 10369 10354 10338 10330 10317 10305 10304 10303 10301 10292 10290 10287 10280 10272 10272
10414 10414 10416 10421 10421 10421 10427 10421 10414 10408 10407 10412 10410 10402 10394 10399 10388 10382 10379 10375 10374 10372 10364 10357 10346 10336 10343 10327 10318 10323 10333 10307 10303 10298 10286 10275 10274 10270 10263 10258 10256 10252 10240 10241 10239